[[{"header":{"parameterUnit":"m.s-1","parameterCategory":1,"la1":30.2991,"la2":30.254,"lo1":-89.0895,"lo2":-89.0444,"dx":0.0017,"dy":0.0017,"nx":28,"ny":28,"refTime":"2022-11-08T09:00:00:Z","depth":0,"parameterNumber":2,"parameterNumberName":"U-component_of_WINDS"},"data":[0,0,0,0,0,0,0,0,0,0,0,0,0,0,0,0,0,0,0,0,0,0,0,0,0,0,0,0,0,0,0,0,0,0,0,0,0,0,0,0,0,0,0,0,0,0,0,0,0,0,0,0,0,0,0,0,0,0,-1.8421,-1.8422,0,-1.8558,-1.856,-1.8562,-1.8593,-1.8592,-1.8591,-1.859,-1.8736,-1.8741,-1.8745,0,0,0,0,0,0,0,0,0,0,0,0,0,-1.8191,-1.8195,-1.8421,-1.8422,-1.8424,-1.8558,-1.856,-1.8562,-1.8593,-1.8592,-1.8591,-1.859,-1.8735,-1.874,-1.8746,0,0,0,0,0,0,0,0,0,0,0,0,0,-1.8306,-1.8196,-1.842,-1.8456,-1.846,-1.8558,-1.856,-1.8562,-1.8593,-1.8592,-1.8591,-1.8589,-1.8733,-1.874,-1.8747,-1.882,0,0,-1.8769,-1.8772,0,0,0,0,0,0,0,0,-1.8299,-1.8314,-1.8449,-1.8454,-1.8459,-1.8557,-1.8532,-1.8649,-1.8594,-1.8543,-1.859,-1.8588,-1.8678,-1.869,-1.8719,-1.8827,-1.8833,-1.8769,-1.8774,-1.8777,-1.8779,0,0,0,0,0,0,0,-1.8291,-1.8308,-1.8475,-1.8451,-1.8457,-1.8467,-1.8481,-1.8555,-1.8617,-1.8547,-1.855,-1.8566,-1.868,-1.8712,-1.8722,-1.8836,-1.8769,-1.8775,-1.878,-1.8783,-1.9013,-1.9015,0,0,0,0,0,0,-1.8276,-1.8302,-1.8471,-1.8479,-1.8374,-1.8472,-1.8488,-1.8527,-1.8616,-1.8629,-1.8567,-1.8566,-1.87,-1.8714,-1.8728,-1.8821,-1.8777,-1.8783,-1.8788,-1.9012,-1.9014,-1.9016,0,0,0,0,0,0,-1.8271,-1.8291,-1.8465,-1.8391,-1.8414,-1.8477,-1.8521,-1.853,-1.8562,-1.8631,-1.8643,-1.8587,-1.87,-1.8718,-1.8797,-1.8827,-1.8787,-1.8793,-1.9009,-1.9012,-1.9015,-1.9007,0,0,0,0,0,0,-1.8264,-1.8289,-1.8316,-1.8392,-1.8418,-1.8531,-1.8522,-1.8534,-1.8573,-1.8575,-1.8653,-1.8665,-1.87,-1.8786,-1.8804,-1.8836,-1.8799,-1.9007,-1.9011,-1.9014,-1.9005,-1.901,-1.9013,0,0,0,0,0,-1.8256,-1.8309,-1.8317,-1.8338,-1.8453,-1.8532,-1.8548,-1.8586,-1.8576,-1.8605,-1.8649,-1.8662,-1.882,-1.8794,-1.8815,-1.8849,-1.9005,-1.901,-1.9014,-1.9004,-1.9009,-1.9013,0,0,0,0,0,0,-1.8237,-1.832,-1.833,-1.8409,-1.8463,-1.8537,-1.8575,-1.859,-1.8649,-1.8648,-1.8694,-1.8712,-1.8789,-1.8827,-1.8796,-1.8926,-1.8913,-1.8921,-1.8898,-1.8904,-1.8907,-1.8897,-1.8805,0,0,0,0,0,-1.8242,-1.8298,-1.8368,-1.8431,-1.8457,-1.8511,-1.8547,-1.8572,-1.8631,-1.8655,-1.8705,-1.8763,-1.8826,-1.8867,-1.8929,-1.9011,-1.903,-1.9045,-1.9048,-1.9051,-1.9058,-1.9107,-1.9115,-1.9029,-1.9029,-1.9029,0,0,-1.8253,-1.8305,-1.8338,-1.8428,-1.8473,-1.8532,-1.8531,-1.8593,-1.8637,-1.8665,-1.8743,-1.8782,-1.885,-1.8931,-1.897,-1.8966,-1.9086,-1.9056,-1.9058,-1.9064,-1.9112,-1.912,-1.9127,-1.9032,-1.9031,-1.9031,0,0,-1.8304,-1.8347,-1.8406,-1.8451,-1.8518,-1.8554,-1.8568,-1.864,-1.8667,-1.8746,-1.8768,-1.8823,-1.8929,-1.8978,-1.9016,-1.9085,-1.91,-1.9104,-1.9125,-1.9172,-1.9179,-1.9185,-1.9211,-1.922,-1.9111,-1.9111,-1.9111,0,-1.8309,-1.8397,-1.8434,-1.8495,-1.8535,-1.8561,-1.8621,-1.8664,-1.8749,-1.8777,-1.877,-1.8906,-1.8953,-1.9047,-1.9064,-1.9094,-1.9113,-1.9096,-1.9174,-1.9181,-1.9187,-1.9213,-1.9223,-1.9111,-1.9111,-1.9111,-1.9111,0,-1.8401,-1.8462,-1.8501,-1.8581,-1.8625,-1.8686,-1.8734,-1.8775,-1.8796,-1.8833,-1.8914,-1.8972,-1.9046,-1.907,-1.9091,-1.9168,-1.9163,-1.9164,-1.9153,-1.9195,-1.922,-1.923,-1.9111,-1.9111,-1.9111,-1.9111,0,0,-1.8444,-1.8544,-1.8558,-1.8595,-1.8672,-1.8721,-1.8783,-1.8854,-1.8889,-1.8947,-1.9003,-1.9093,-1.9095,-1.9138,-1.9165,-1.9206,-1.9259,-1.9203,-1.9205,-1.9213,-1.935,-1.9349,-1.936,-1.9269,-1.9271,-1.9273,-1.9344,0,-1.8505,-1.8616,-1.8651,-1.8744,-1.8802,-1.8828,-1.8882,-1.8937,-1.8973,-1.9029,-1.907,-1.9133,-1.913,-1.9157,-1.9198,-1.9244,-1.9288,-1.9239,-1.9323,-1.9326,-1.9306,-1.9372,-1.9372,-1.9437,-1.9354,-1.9356,-1.9357,0,-1.8591,-1.8649,-1.8747,-1.8818,-1.8844,-1.8892,-1.8961,-1.9013,-1.9076,-1.91,-1.9148,-1.9172,-1.9241,-1.9224,-1.932,-1.9286,-1.9323,-1.9351,-1.9354,-1.9365,-1.9345,-1.9387,-1.9458,-1.9468,-1.9373,-1.9371,-1.937,0,-1.8614,-1.8717,-1.879,-1.8821,-1.8904,-1.8938,-1.8975,-1.9036,-1.9077,-1.9138,-1.9166,-1.9234,-1.9272,-1.9326,-1.9369,-1.9352,-1.9462,-1.9448,-1.9486,-1.9485,-1.9509,-1.9507,-1.9589,-1.9529,-1.9529,-1.9529,-1.9529,0,-1.8679,-1.8739,-1.8801,-1.8846,-1.8914,-1.8956,-1.9023,-1.9061,-1.9116,-1.917,-1.9196,-1.9247,-1.93,-1.9358,-1.9392,-1.9468,-1.9484,-1.9507,-1.9516,-1.9506,-1.9503,-1.9532,-1.9529,-1.9532,-1.9531,-1.953,-1.953,0,-1.8718,-1.8761,-1.8842,-1.8915,-1.8935,-1.8982,-1.9045,-1.9091,-1.9128,-1.9196,-1.9215,-1.9274,-1.9345,-1.9392,-1.9482,-1.9505,-1.9588,-1.9595,-1.9566,-1.9571,-1.9606,-1.9603,-1.9711,-1.9728,-1.9655,-1.9655,-1.9656,0,-1.8757,-1.8803,-1.888,-1.8918,-1.8954,-1.9014,-1.9056,-1.9099,-1.9142,-1.9218,-1.9255,-1.9326,-1.9386,-1.9497,-1.955,-1.9619,-1.9629,-1.9662,-1.964,-1.9629,-1.9632,-1.9629,-1.9635,-1.9666,-1.9667,-1.9667,-1.9668,0,-1.8823,-1.8842,-1.89,-1.8967,-1.9016,-1.907,-1.9125,-1.9155,-1.9208,-1.9255,-1.9326,-1.9372,-1.9464,-1.9536,-1.961,-1.9651,-1.9669,-1.9674,-1.9687,-1.9678,-1.966,-1.9672,-1.9577,-1.9672,-1.9671,-1.9671,-1.9671,-1.9671,-1.8864,-1.8907,-1.8968,-1.9033,-1.9078,-1.9129,-1.9176,-1.9219,-1.9278,-1.9355,-1.9377,-1.9452,-1.9516,-1.9618,-1.9659,-1.972,-1.9717,-1.9735,-1.974,-1.9744,-1.9745,-1.9648,-1.9733,-1.9733,-1.9733,-1.9733,-1.9733,0,-1.8933,-1.8973,-1.9032,-1.9108,-1.9159,-1.9169,-1.9231,-1.9274,-1.9339,-1.9396,-1.9454,-1.9537,-1.9606,-1.9664,-1.9737,-1.9774,-1.9785,-1.9792,-1.9791,-1.98,-1.9742,-1.9725,-1.9783,-1.9783,-1.9783,-1.9783,-1.9783,-1.9783,-1.8974,-1.9048,-1.9075,-1.9172,-1.9213,-1.9285,-1.932,-1.9368,-1.9414,-1.9504,-1.9562,-1.9598,-1.9657,-1.9734,-1.9799,-1.9814,-1.9841,-1.9847,-1.9864,-1.981,-1.9804,-1.9799,-1.9783,-1.9852,-1.9852,-1.9918,-1.9918,-1.9919]},{"header":{"parameterUnit":"m.s-1","parameterCategory":1,"la1":30.2991,"la2":30.254,"lo1":-89.0895,"lo2":-89.0444,"dx":0.0017,"dy":0.0017,"nx":28,"ny":28,"refTime":"2022-11-08T09:00:00:Z","depth":0,"parameterNumber":3,"parameterNumberName":"V-component_of_WINDS"},"data":[0,0,0,0,0,0,0,0,0,0,0,0,0,0,0,0,0,0,0,0,0,0,0,0,0,0,0,0,0,0,0,0,0,0,0,0,0,0,0,0,0,0,0,0,0,0,0,0,0,0,0,0,0,0,0,0,0,0,-2.8731,-2.873,0,-2.8683,-2.8682,-2.8682,-2.8614,-2.8613,-2.8612,-2.8611,-2.8561,-2.856,-2.856,0,0,0,0,0,0,0,0,0,0,0,0,0,-2.8763,-2.8763,-2.8731,-2.873,-2.873,-2.8683,-2.8682,-2.8682,-2.8614,-2.8613,-2.8612,-2.861,-2.8561,-2.856,-2.856,0,0,0,0,0,0,0,0,0,0,0,0,0,-2.8736,-2.8763,-2.8731,-2.869,-2.8686,-2.8683,-2.8682,-2.8682,-2.8615,-2.8613,-2.8611,-2.861,-2.8561,-2.856,-2.856,-2.8592,0,0,-2.8559,-2.8559,0,0,0,0,0,0,0,0,-2.8737,-2.8735,-2.8697,-2.8693,-2.8689,-2.8653,-2.8675,-2.8652,-2.8615,-2.8642,-2.8611,-2.8609,-2.8593,-2.859,-2.8584,-2.859,-2.8588,-2.8559,-2.8559,-2.8558,-2.8558,0,0,0,0,0,0,0,-2.8739,-2.8736,-2.8712,-2.8697,-2.8691,-2.8674,-2.8669,-2.8671,-2.8628,-2.8639,-2.8634,-2.863,-2.859,-2.8585,-2.8583,-2.8587,-2.8559,-2.8558,-2.8558,-2.8558,-2.8617,-2.8619,0,0,0,0,0,0,-2.8747,-2.8738,-2.8713,-2.871,-2.8709,-2.8675,-2.8669,-2.8666,-2.8627,-2.862,-2.8631,-2.8627,-2.8586,-2.8583,-2.8581,-2.8616,-2.8558,-2.8558,-2.8558,-2.8616,-2.8618,-2.862,0,0,0,0,0,0,-2.8748,-2.8746,-2.8715,-2.8723,-2.8718,-2.8677,-2.8674,-2.8666,-2.8661,-2.8621,-2.8613,-2.8634,-2.8585,-2.8581,-2.859,-2.8614,-2.8558,-2.8558,-2.8613,-2.8616,-2.8619,-2.8688,0,0,0,0,0,0,-2.8749,-2.8746,-2.8758,-2.8724,-2.8718,-2.8726,-2.8676,-2.8666,-2.866,-2.8654,-2.8622,-2.8615,-2.8583,-2.8591,-2.859,-2.8612,-2.8557,-2.8611,-2.8615,-2.8618,-2.8684,-2.8693,-2.8701,0,0,0,0,0,-2.8751,-2.8779,-2.8759,-2.8757,-2.8732,-2.8728,-2.8724,-2.8688,-2.8663,-2.8674,-2.8649,-2.8616,-2.8611,-2.8593,-2.8591,-2.8613,-2.861,-2.8614,-2.8618,-2.868,-2.8691,-2.8701,0,0,0,0,0,0,-2.8817,-2.8774,-2.8751,-2.877,-2.8753,-2.8716,-2.873,-2.8701,-2.8691,-2.8685,-2.864,-2.8633,-2.8648,-2.8631,-2.8611,-2.8643,-2.8605,-2.8609,-2.8653,-2.8664,-2.8672,-2.8676,-2.8557,0,0,0,0,0,-2.8834,-2.8835,-2.8797,-2.8816,-2.8809,-2.8771,-2.8768,-2.8742,-2.8722,-2.8715,-2.869,-2.8672,-2.8667,-2.8664,-2.8657,-2.8681,-2.8673,-2.8695,-2.8704,-2.8711,-2.8715,-2.8727,-2.8737,-2.8633,-2.8633,-2.8633,0,0,-2.8869,-2.8845,-2.8848,-2.8829,-2.8813,-2.8815,-2.8766,-2.8769,-2.877,-2.8715,-2.8722,-2.8704,-2.8681,-2.8698,-2.8704,-2.8684,-2.8742,-2.8716,-2.8723,-2.8722,-2.8732,-2.8742,-2.8751,-2.8636,-2.8635,-2.8635,0,0,-2.8933,-2.8915,-2.893,-2.8915,-2.8892,-2.8866,-2.887,-2.8838,-2.8824,-2.883,-2.879,-2.879,-2.8781,-2.8767,-2.8758,-2.8818,-2.8787,-2.8817,-2.8862,-2.8875,-2.8883,-2.889,-2.8912,-2.892,-2.8821,-2.8821,-2.8821,0,-2.8979,-2.898,-2.8941,-2.8948,-2.8941,-2.8892,-2.8907,-2.8894,-2.8869,-2.8866,-2.8844,-2.8833,-2.8814,-2.8827,-2.8842,-2.8837,-2.884,-2.8821,-2.8885,-2.8891,-2.8897,-2.8918,-2.8926,-2.8825,-2.8825,-2.8824,-2.8824,0,-2.9038,-2.9039,-2.9054,-2.9032,-2.9027,-2.9038,-2.9,-2.9,-2.8974,-2.8951,-2.8959,-2.8934,-2.8922,-2.8923,-2.8898,-2.8933,-2.8921,-2.8893,-2.8855,-2.8912,-2.893,-2.8938,-2.8831,-2.8829,-2.8828,-2.8827,0,0,-2.9143,-2.91,-2.9106,-2.9096,-2.9067,-2.9067,-2.9075,-2.9064,-2.9064,-2.9049,-2.9055,-2.905,-2.9023,-2.9014,-2.8986,-2.8997,-2.9047,-2.8967,-2.8966,-2.8984,-2.9085,-2.9108,-2.9117,-2.9026,-2.9028,-2.9029,-2.9087,0,-2.9201,-2.9214,-2.918,-2.9201,-2.9202,-2.9156,-2.9163,-2.9146,-2.9125,-2.9123,-2.9099,-2.9096,-2.9061,-2.9056,-2.9064,-2.9039,-2.9067,-2.9035,-2.9032,-2.9032,-2.904,-2.9127,-2.915,-2.9206,-2.9094,-2.9096,-2.9096,0,-2.9272,-2.9261,-2.9283,-2.9253,-2.9252,-2.9259,-2.9246,-2.9245,-2.9225,-2.9208,-2.9199,-2.9167,-2.9173,-2.9137,-2.9145,-2.9124,-2.912,-2.9108,-2.911,-2.9108,-2.9068,-2.9128,-2.9223,-2.9232,-2.9107,-2.9106,-2.9106,0,-2.9347,-2.9338,-2.9349,-2.9342,-2.9308,-2.9314,-2.93,-2.9278,-2.9274,-2.9262,-2.9259,-2.9248,-2.9242,-2.9235,-2.9201,-2.9177,-2.9214,-2.9174,-2.9201,-2.9202,-2.9211,-2.9211,-2.9307,-2.9208,-2.9208,-2.9208,-2.9208,0,-2.9416,-2.9431,-2.9383,-2.939,-2.9406,-2.9366,-2.9383,-2.9364,-2.9345,-2.9348,-2.9307,-2.9311,-2.9266,-2.9265,-2.9239,-2.925,-2.9247,-2.9235,-2.9228,-2.9239,-2.9241,-2.9236,-2.9232,-2.921,-2.9209,-2.9209,-2.9209,0,-2.9503,-2.9471,-2.9481,-2.9448,-2.944,-2.9453,-2.9424,-2.943,-2.9406,-2.9411,-2.941,-2.9373,-2.9369,-2.9335,-2.9323,-2.9306,-2.9328,-2.9312,-2.9335,-2.933,-2.9359,-2.9357,-2.9457,-2.9468,-2.9361,-2.9362,-2.9363,0,-2.955,-2.956,-2.9529,-2.9528,-2.9516,-2.9515,-2.9511,-2.9472,-2.9469,-2.9448,-2.9456,-2.9449,-2.9442,-2.9439,-2.9411,-2.9402,-2.9387,-2.9422,-2.9385,-2.9396,-2.9388,-2.9388,-2.9389,-2.943,-2.9432,-2.9433,-2.9434,0,-2.9636,-2.962,-2.9615,-2.9605,-2.9601,-2.9591,-2.9579,-2.9581,-2.9538,-2.9537,-2.9533,-2.9528,-2.9517,-2.9511,-2.9497,-2.9482,-2.9452,-2.9446,-2.9452,-2.9463,-2.9476,-2.947,-2.9357,-2.9444,-2.9443,-2.9442,-2.9441,-2.9441,-2.9705,-2.9712,-2.9692,-2.9688,-2.9675,-2.9664,-2.9668,-2.9646,-2.9642,-2.963,-2.9608,-2.9608,-2.9588,-2.9567,-2.9555,-2.9554,-2.9535,-2.9544,-2.9546,-2.9549,-2.9555,-2.9476,-2.9551,-2.9551,-2.9551,-2.955,-2.955,0,-2.979,-2.9774,-2.9771,-2.9756,-2.9753,-2.9724,-2.9709,-2.9709,-2.971,-2.9694,-2.9688,-2.9684,-2.9678,-2.965,-2.9642,-2.9647,-2.9632,-2.9646,-2.9645,-2.9642,-2.9572,-2.9568,-2.9657,-2.9657,-2.9657,-2.9657,-2.9657,-2.9657,-2.9834,-2.9846,-2.9827,-2.9832,-2.9817,-2.9817,-2.9811,-2.9801,-2.9788,-2.9786,-2.9782,-2.9764,-2.9743,-2.9733,-2.9726,-2.9718,-2.9717,-2.9736,-2.9723,-2.9658,-2.9647,-2.9637,-2.9634,-2.9735,-2.9736,-2.9794,-2.9794,-2.9795]}]]